Weather reports worldwide

Advertisment
Gibraltar, United Kingdom (8495): temperature & dewpoint: 19.03.2019 18:00:00 - 25.03.2019 18:00:00 (CET)Gibraltar, United Kingdom (8495): wind speed & gusts: 19.03.2019 18:00:00 - 25.03.2019 18:00:00 (CET)Gibraltar, United Kingdom (8495): wind direction: 19.03.2019 18:00:00 - 25.03.2019 18:00:00 (CET)Gibraltar, United Kingdom (8495): reduced air pressure: 19.03.2019 18:00:00 - 25.03.2019 18:00:00 (CET)Gibraltar, United Kingdom (8495): visibility: 19.03.2019 18:00:00 - 25.03.2019 18:00:00 (CET)
Date & Time tt [°C] td [°C] ff [km/h] ff [kn] fx [km/h] fx [kn] dd ppp [hPa] vv [km]
25.03.2019 18:00:00 - - - - - - - - -
25.03.2019 17:00:00 17,0 13,1 26 14 - - E 1015,3 10
25.03.2019 16:00:00 16,9 12,9 26 14 - - E 1015,8 12
25.03.2019 15:00:00 16,6 12,9 28 15 - - E 1016,6 12
25.03.2019 14:00:00 17,1 13,3 31 17 46 25 E 1017,5 15
25.03.2019 13:00:00 16,8 12,3 26 14 - - ENE 1018,1 15
25.03.2019 12:00:00 17,4 13,4 26 14 - - E 1018,6 12
25.03.2019 11:00:00 16,1 13,0 26 14 - - ENE 1018,9 9
25.03.2019 10:00:00 15,4 12,7 24 13 - - E 1018,8 12
25.03.2019 09:00:00 15,6 12,7 26 14 - - E 1018,4 10
25.03.2019 08:00:00 14,5 12,6 26 14 - - E 1018,1 10
25.03.2019 07:00:00 14,3 12,6 24 13 - - E 1018,0 9
25.03.2019 06:00:00 15,4 13,5 28 15 - - E 1017,9 9
25.03.2019 05:00:00 15,4 13,4 28 15 - - E 1018,1 10
25.03.2019 04:00:00 15,4 13,8 28 15 - - ENE 1018,2 8
25.03.2019 03:00:00 15,5 13,4 29 16 - - ENE 1018,6 8
25.03.2019 02:00:00 15,4 13,4 29 16 - - ENE 1018,8 9
25.03.2019 01:00:00 15,4 13,8 31 17 - - E 1019,5 7
25.03.2019 00:00:00 15,6 13,5 29 16 - - E 1019,8 8
24.03.2019 23:00:00 15,8 13,5 24 13 - - E 1020,2 7
24.03.2019 22:00:00 14,9 12,9 24 13 - - E 1020,2 6
24.03.2019 21:00:00 15,2 12,7 22 12 - - E 1020,0 8
24.03.2019 20:00:00 16,0 12,4 28 15 - - E 1019,8 10
24.03.2019 19:00:00 16,8 12,7 26 14 - - E 1019,7 8
24.03.2019 18:00:00 16,9 13,1 21 11 - - E 1019,7 8
24.03.2019 17:00:00 16,7 12,7 24 13 - - E 1019,5 8
24.03.2019 16:00:00 16,9 12,8 26 14 50 27 ENE 1019,8 8
24.03.2019 15:00:00 17,0 12,6 34 18 54 29 E 1020,1 8
24.03.2019 14:00:00 16,8 12,6 37 20 55 30 E 1020,5 8
24.03.2019 13:00:00 16,2 12,6 35 19 55 30 E 1020,9 8
24.03.2019 12:00:00 16,1 12,9 35 19 52 28 E 1021,0 8
24.03.2019 11:00:00 15,7 12,3 35 19 54 29 E 1021,0 10
24.03.2019 10:00:00 15,8 12,4 35 19 54 29 E 1020,2 10
24.03.2019 09:00:00 15,4 11,8 37 20 55 30 E 1019,8 10
24.03.2019 08:00:00 15,1 11,8 35 19 54 29 E 1019,4 10
24.03.2019 07:00:00 14,9 11,9 35 19 55 30 E 1019,3 12
24.03.2019 06:00:00 15,0 12,0 42 23 55 30 E 1019,3 8
24.03.2019 05:00:00 14,9 12,2 46 25 54 29 E 1019,1 7
24.03.2019 04:00:00 14,9 12,0 46 25 54 29 E 1019,2 7
24.03.2019 03:00:00 15,0 11,8 46 25 55 30 E 1019,5 9
24.03.2019 02:00:00 15,2 11,6 52 28 61 33 E 1019,9 8
24.03.2019 01:00:00 15,2 11,9 50 27 61 33 E 1020,4 7
24.03.2019 00:00:00 15,1 11,8 52 28 63 34 E 1020,7 8
23.03.2019 23:00:00 15,3 11,7 44 24 65 35 E 1021,0 10
23.03.2019 22:00:00 15,3 11,8 42 23 67 36 E 1021,0 12
23.03.2019 21:00:00 15,2 11,5 42 23 65 35 E 1020,6 12
23.03.2019 20:00:00 15,4 11,4 41 22 61 33 E 1020,3 12
23.03.2019 19:00:00 15,9 11,9 39 21 61 33 E 1019,9 12
23.03.2019 18:00:00 16,4 11,6 41 22 63 34 E 1019,6 12
23.03.2019 17:00:00 16,9 12,2 41 22 65 35 E 1019,7 12
23.03.2019 16:00:00 17,2 11,3 42 23 67 36 E 1020,0 12
23.03.2019 15:00:00 17,1 11,7 41 22 67 36 E 1020,3 12
23.03.2019 14:00:00 17,2 11,8 46 25 68 37 E 1020,9 12
23.03.2019 13:00:00 16,7 11,6 46 25 67 36 E 1021,7 12
23.03.2019 12:00:00 16,1 11,9 44 24 65 35 E 1022,2 12
23.03.2019 11:00:00 16,3 11,7 44 24 67 36 E 1022,2 15
23.03.2019 10:00:00 16,0 11,8 42 23 63 34 E 1022,2 15
23.03.2019 09:00:00 15,6 11,3 41 22 61 33 E 1022,0 15
23.03.2019 08:00:00 15,0 11,3 42 23 63 34 E 1021,9 12
23.03.2019 07:00:00 14,8 11,3 39 21 59 32 E 1021,7 15
23.03.2019 06:00:00 14,7 10,6 52 28 59 32 E 1021,8 12
23.03.2019 05:00:00 14,7 10,9 50 27 59 32 E 1021,9 11
23.03.2019 04:00:00 14,8 10,3 48 26 57 31 E 1022,4 12
23.03.2019 03:00:00 14,9 10,0 52 28 61 33 E 1023,1 12
23.03.2019 02:00:00 14,8 10,1 48 26 59 32 E 1023,3 12
23.03.2019 01:00:00 15,0 10,3 48 26 57 31 E 1023,4 12
23.03.2019 00:00:00 14,7 10,9 48 26 59 32 E 1023,9 12
22.03.2019 23:00:00 14,8 10,2 52 28 65 35 E 1024,1 12
22.03.2019 22:00:00 14,8 10,8 54 29 63 34 E 1023,9 12
22.03.2019 21:00:00 15,0 10,6 48 26 57 31 E 1023,5 12
22.03.2019 20:00:00 15,0 10,6 39 21 55 30 E 1022,9 12
22.03.2019 19:00:00 15,6 10,9 41 22 57 31 E 1022,9 12
22.03.2019 18:00:00 16,1 10,8 41 22 63 34 E 1022,7 12
22.03.2019 17:00:00 16,2 11,2 39 21 59 32 E 1022,8 12
22.03.2019 16:00:00 15,9 10,3 41 22 65 35 E 1023,2 12
22.03.2019 15:00:00 15,4 9,6 44 24 65 35 E 1023,4 12
22.03.2019 14:00:00 15,5 9,3 41 22 63 34 E 1024,1 12
22.03.2019 13:00:00 15,4 9,2 42 23 61 33 E 1024,3 12
22.03.2019 12:00:00 15,4 9,2 41 22 63 34 E 1024,5 12
22.03.2019 11:00:00 15,1 8,6 44 24 67 36 E 1024,6 15
22.03.2019 10:00:00 15,0 7,8 48 26 67 36 E 1024,3 15
22.03.2019 09:00:00 14,9 8,7 44 24 65 35 E 1023,8 15
22.03.2019 08:00:00 14,8 8,4 42 23 65 35 E 1023,5 15
22.03.2019 07:00:00 14,8 8,2 42 23 67 36 E 1023,3 12
22.03.2019 06:00:00 14,8 7,7 57 31 65 35 E 1023,0 14
22.03.2019 05:00:00 14,8 7,9 57 31 67 36 E 1023,0 13
22.03.2019 04:00:00 14,9 8,4 57 31 67 36 E 1023,3 13
22.03.2019 03:00:00 14,8 8,9 54 29 63 34 E 1023,7 13
22.03.2019 02:00:00 14,9 8,1 54 29 61 33 E 1024,0 14
22.03.2019 01:00:00 14,8 8,8 50 27 61 33 E 1024,4 13
22.03.2019 00:00:00 14,8 8,7 52 28 61 33 E 1024,7 14
21.03.2019 23:00:00 14,9 8,9 50 27 61 33 E 1024,9 13
21.03.2019 22:00:00 14,8 9,0 50 27 59 32 E 1024,8 14
21.03.2019 21:00:00 14,8 8,9 48 26 55 30 E 1024,4 14
21.03.2019 20:00:00 14,9 8,8 39 21 55 30 E 1023,9 14
21.03.2019 19:00:00 14,8 8,9 39 21 55 30 E 1023,9 15
21.03.2019 18:00:00 15,3 8,5 37 20 54 29 E 1023,8 15
21.03.2019 17:00:00 15,4 8,4 37 20 57 31 E 1023,9 12
21.03.2019 16:00:00 15,2 8,7 41 22 59 32 E 1024,1 15
21.03.2019 15:00:00 14,8 8,1 41 22 70 38 E 1024,3 15
21.03.2019 14:00:00 14,7 9,0 41 22 67 36 E 1024,8 15
21.03.2019 13:00:00 11,9 9,1 44 24 80 43 E 1025,2 5
21.03.2019 12:00:00 15,8 7,3 46 25 68 37 E 1025,1 15
21.03.2019 11:00:00 13,5 7,1 55 30 80 43 E 1024,9 15
21.03.2019 10:00:00 15,3 7,3 46 25 67 36 E 1024,6 15
21.03.2019 09:00:00 14,6 6,0 44 24 67 36 E 1024,5 15
21.03.2019 08:00:00 14,2 5,1 46 25 68 37 E 1023,8 15
21.03.2019 07:00:00 14,3 6,5 48 26 70 38 E 1023,4 15
21.03.2019 06:00:00 14,4 6,3 52 28 63 34 E 1023,2 15
21.03.2019 05:00:00 14,3 6,2 54 29 67 36 E 1023,2 17
21.03.2019 04:00:00 14,6 7,8 54 29 67 36 E 1023,5 14
21.03.2019 03:00:00 14,6 7,7 55 30 70 38 E 1024,1 15
21.03.2019 02:00:00 14,6 8,2 57 31 72 39 E 1024,4 13
21.03.2019 01:00:00 14,5 8,3 61 33 70 38 E 1024,5 14
21.03.2019 00:00:00 14,7 8,2 55 30 67 36 E 1025,1 14
20.03.2019 23:00:00 14,8 7,7 54 29 63 34 E 1025,4 15
20.03.2019 22:00:00 14,9 7,8 54 29 61 33 E 1025,2 16
20.03.2019 21:00:00 15,0 8,6 50 27 61 33 E 1025,0 15
20.03.2019 20:00:00 15,0 7,9 50 27 55 30 E 1024,5 16
20.03.2019 19:00:00 15,7 9,3 46 25 57 31 E 1024,2 15
20.03.2019 18:00:00 15,9 8,4 37 20 55 30 E 1023,7 20
20.03.2019 17:00:00 15,8 8,0 37 20 55 30 E 1023,7 20
20.03.2019 16:00:00 16,6 8,5 41 22 61 33 E 1024,0 20
20.03.2019 15:00:00 16,2 8,3 41 22 57 31 E 1024,2 20
20.03.2019 14:00:00 16,8 8,1 37 20 59 32 E 1025,0 25
20.03.2019 13:00:00 16,1 6,8 41 22 59 32 E 1025,3 25
20.03.2019 12:00:00 16,2 6,8 35 19 57 31 E 1025,8 25
20.03.2019 11:00:00 16,3 6,8 41 22 59 32 E 1025,4 20
20.03.2019 10:00:00 15,9 7,6 39 21 57 31 E 1024,9 20
20.03.2019 09:00:00 15,6 7,8 41 22 57 31 E 1024,4 20
20.03.2019 08:00:00 15,1 8,6 35 19 57 31 E 1023,9 15
20.03.2019 07:00:00 15,1 9,3 39 21 52 28 E 1023,3 15
20.03.2019 06:00:00 15,2 9,6 46 25 54 29 E 1023,0 14
20.03.2019 05:00:00 15,3 8,6 50 27 57 31 E 1023,1 15
20.03.2019 04:00:00 15,5 9,9 46 25 55 30 E 1023,1 14
20.03.2019 03:00:00 15,7 11,4 42 23 55 30 E 1023,5 13
20.03.2019 02:00:00 15,7 11,8 39 21 52 28 E 1023,7 13
20.03.2019 01:00:00 15,9 11,5 37 20 48 26 E 1023,9 13
20.03.2019 00:00:00 15,9 11,7 37 20 50 27 E 1024,0 13
19.03.2019 23:00:00 16,2 12,1 35 19 - - E 1023,7 10
19.03.2019 22:00:00 16,3 12,3 34 18 - - E 1023,0 12
19.03.2019 21:00:00 16,2 12,9 15 8 - - E 1022,1 12
19.03.2019 20:00:00 16,4 12,7 13 7 - - E 1021,0 12
19.03.2019 19:00:00 18,0 11,4 4 2 - - SE 1020,4 10
19.03.2019 18:00:00 18,8 10,7 8 4 - - S 1019,8 12

tt = temperature
td = dewpoint
ff = wind speed
fx = gusts
dd = wind direction
ppp = reduced air pressure
vv = visibility

Next stations